| time (UTC) | temp F | wind direction | speed MPH | gust MPH | rain 1hr in | rain 24hr in | rain mn in | humidity % | barometer mb |
| 20260504050224 | 50 | 173 | 4.0 | 9.0 | 0.00 | 0.00 | 0.00 | 60 | 1010.4 |
| 20260504044727 | 51 | 175 | 3.0 | 10.0 | 0.00 | 0.00 | 0.00 | 61 | 1010.5 |
| 20260504043225 | 51 | 192 | 3.0 | 10.0 | 0.00 | 0.00 | 0.00 | 60 | 1010.6 |
| 20260504041726 | 51 | 33 | 4.0 | 10.0 | 0.00 | 0.00 | 0.00 | 60 | 1010.6 |
| 20260504040225 | 51 | 271 | 4.0 | 11.0 | 0.00 | 0.00 | 0.00 | 60 | 1010.6 |
| 20260504034726 | 51 | 192 | 3.0 | 8.0 | 0.00 | 0.00 | 0.00 | 62 | 1010.6 |
| 20260504033226 | 51 | 185 | 3.0 | 9.0 | 0.00 | 0.00 | 0.00 | 63 | 1010.6 |
| 20260504031725 | 51 | 246 | 4.0 | 12.0 | 0.00 | 0.00 | 0.00 | 63 | 1010.9 |
| 20260504030226 | 50 | 270 | 3.0 | 9.0 | 0.00 | 0.00 | 0.00 | 64 | 1010.9 |
| 20260504024727 | 50 | 167 | 2.0 | 7.0 | 0.00 | 0.00 | 0.00 | 65 | 1011.1 |
| 20260504023209 | 50 | 273 | 4.0 | 9.0 | 0.00 | 0.00 | 0.00 | 65 | 1011.3 |
| 20260504021706 | 50 | 265 | 7.0 | 16.0 | 0.00 | 0.00 | 0.00 | 66 | 1011.5 |
| 20260504020202 | 49 | 355 | 10.0 | 26.0 | 0.00 | 0.00 | 0.00 | 69 | 1011.9 |
| 20260504014702 | 51 | 305 | 13.0 | 26.0 | 0.00 | 0.00 | 0.00 | 62 | 1011.9 |
| 20260504014538 | 51 | 262 | 5.0 | 13.0 | 0.00 | 0.00 | 0.00 | 58 | 1011.4 |
| 20260504012403 | 52 | 259 | 9.0 | 20.0 | 0.00 | 0.00 | 0.00 | 58 | 1011.2 |
| 20260504010202 | 52 | 280 | 9.0 | 19.0 | 0.00 | 0.00 | 0.00 | 59 | 1011.2 |
| 20260504004700 | 52 | 297 | 5.0 | 14.0 | 0.00 | 0.00 | 0.00 | 58 | 1011.2 |
| 20260504004550 | 51 | 278 | 3.0 | 8.0 | 0.00 | 0.00 | 0.00 | 58 | 1010.9 |
| 20260504001702 | 51 | 238 | 4.0 | 11.0 | 0.00 | 0.00 | 0.00 | 59 | 1010.6 |
| 20260504000200 | 51 | 203 | 4.0 | 11.0 | 0.00 | 0.00 | 0.00 | 61 | 1010.5 |
| 20260503235411 | 51 | 180 | 5.0 | 17.0 | 0.00 | 0.00 | 0.00 | 61 | 1011.0 |
| 20260503233159 | 50 | 286 | 8.0 | 26.0 | 0.00 | 0.00 | 0.00 | 62 | 1011.2 |
| 20260503231659 | 51 | 311 | 9.0 | 14.0 | 0.00 | 0.00 | 0.00 | 60 | 1011.4 |
| 20260503230013 | 52 | 262 | 3.0 | 7.0 | 0.00 | 0.00 | 0.00 | 57 | 1010.8 |
| 20260503224512 | 52 | 294 | 5.0 | 11.0 | 0.00 | 0.00 | 0.00 | 56 | 1010.6 |
| 20260503222954 | 52 | 310 | 6.0 | 13.0 | 0.00 | 0.00 | 0.00 | 54 | 1010.6 |
| 20260503221455 | 53 | 188 | 7.0 | 13.0 | 0.00 | 0.00 | 0.00 | 55 | 1010.7 |
| 20260503215954 | 53 | 320 | 7.0 | 14.0 | 0.00 | 0.00 | 0.00 | 54 | 1010.7 |
| 20260503215155 | 52 | 288 | 7.0 | 18.0 | 0.00 | 0.00 | 0.00 | 54 | 1010.9 |
| 20260503212953 | 52 | 292 | 7.0 | 18.0 | 0.00 | 0.00 | 0.00 | 56 | 1010.8 |
| 20260503211454 | 52 | 277 | 7.0 | 13.0 | 0.00 | 0.00 | 0.00 | 56 | 1010.8 |
| 20260503205954 | 51 | 307 | 8.0 | 15.0 | 0.00 | 0.00 | 0.00 | 55 | 1010.9 |
| 20260503204453 | 51 | 296 | 9.0 | 16.0 | 0.00 | 0.00 | 0.00 | 56 | 1011.0 |
| 20260503202951 | 51 | 304 | 10.0 | 19.0 | 0.00 | 0.00 | 0.00 | 55 | 1011.0 |
| 20260503201453 | 51 | 262 | 11.0 | 20.0 | 0.00 | 0.00 | 0.00 | 56 | 1011.1 |
| 20260503195949 | 51 | 298 | 11.0 | 21.0 | 0.00 | 0.00 | 0.00 | 59 | 1011.4 |
| 20260503195150 | 50 | 289 | 7.0 | 15.0 | 0.00 | 0.00 | 0.00 | 60 | 1011.3 |
| 20260503193655 | 50 | 280 | 8.0 | 14.0 | 0.00 | 0.00 | 0.00 | 59 | 1011.5 |
| 20260503191451 | 49 | 271 | 8.0 | 16.0 | 0.00 | 0.00 | 0.00 | 59 | 1011.7 |
| 20260503185948 | 50 | 225 | 9.0 | 16.0 | 0.00 | 0.00 | 0.00 | 58 | 1011.8 |
| 20260503185158 | 50 | 279 | 8.0 | 17.0 | 0.00 | 0.00 | 0.00 | 57 | 1012.1 |
| 20260503182949 | 50 | 294 | 9.0 | 16.0 | 0.00 | 0.00 | 0.00 | 59 | 1012.2 |
| 20260503181451 | 49 | 306 | 11.0 | 19.0 | 0.00 | 0.00 | 0.00 | 58 | 1012.3 |
| 20260503175952 | 49 | 289 | 8.0 | 17.0 | 0.00 | 0.00 | 0.00 | 59 | 1012.4 |
| 20260503174453 | 49 | 290 | 7.0 | 18.0 | 0.00 | 0.00 | 0.00 | 55 | 1012.6 |
| 20260503173704 | 48 | 309 | 7.0 | 18.0 | 0.00 | 0.00 | 0.00 | 57 | 1012.7 |
| 20260503171454 | 47 | 311 | 8.0 | 13.0 | 0.00 | 0.00 | 0.00 | 56 | 1012.8 |
| 20260503131331 | 40 | 293 | 7.0 | 14.0 | 0.00 | 0.00 | 0.00 | 76 | 1014.4 |
| 20260503081204 | 37 | 281 | 4.0 | 9.0 | 0.00 | 0.00 | 0.00 | 84 | 1013.7 |
| 20260503072702 | 37 | 294 | 5.0 | 8.0 | 0.00 | 0.00 | 0.00 | 84 | 1013.5 |
| 20260503071202 | 37 | 268 | 4.0 | 8.0 | 0.00 | 0.00 | 0.00 | 85 | 1013.6 |